TimeCST,TemperatureF,Dew PointF,Humidity,Sea Level PressureIn,VisibilityMPH,Wind Direction,Wind SpeedMPH,Gust SpeedMPH,PrecipitationIn,Events,Conditions,WindDirDegrees,DateUTC
12:13 AM,10.2,6.6,85,30.04,7.0,NNE,10.4,-,N/A,Snow,Light Snow,20,2013-12-20 06:13:00
12:33 AM,10.2,6.6,85,30.04,7.0,NNE,11.5,-,N/A,Snow,Light Snow,20,2013-12-20 06:33:00
12:53 AM,9.5,5.9,85,30.03,5.0,NNE,9.2,-,N/A,Snow,Light Snow,20,2013-12-20 06:53:00
1:12 AM,9.1,5.5,85,30.02,7.0,NNE,10.4,-,N/A,Snow,Light Snow,20,2013-12-20 07:12:00
1:33 AM,8.2,4.6,85,30.02,10.0,NNE,8.1,-,N/A,,Clear,30,2013-12-20 07:33:00
1:53 AM,7.3,3.7,85,30.02,10.0,NNE,9.2,-,N/A,,Clear,20,2013-12-20 07:53:00
2:13 AM,6.8,3.2,85,30.02,10.0,NNE,8.1,-,N/A,,Scattered Clouds,20,2013-12-20 08:13:00
2:33 AM,7.2,3.7,86,30.02,10.0,NNE,10.4,-,N/A,,Overcast,20,2013-12-20 08:33:00
2:53 AM,6.8,3.2,85,30.03,10.0,North,9.2,-,N/A,,Scattered Clouds,10,2013-12-20 08:53:00
3:13 AM,6.3,2.8,86,30.03,10.0,NNE,8.1,-,N/A,,Mostly Cloudy,20,2013-12-20 09:13:00
3:32 AM,6.8,3.2,85,30.02,10.0,North,8.1,-,N/A,,Overcast,10,2013-12-20 09:32:00
3:53 AM,7.3,3.9,86,30.02,10.0,NNE,9.2,-,N/A,,Overcast,20,2013-12-20 09:53:00
4:12 AM,7.5,4.1,86,30.01,10.0,NNE,9.2,-,N/A,,Overcast,20,2013-12-20 10:12:00
4:33 AM,8.1,4.6,86,30.01,10.0,North,6.9,-,N/A,Snow,Light Snow,10,2013-12-20 10:33:00
4:53 AM,6.8,3.2,85,30.01,10.0,North,8.1,-,N/A,,Overcast,10,2013-12-20 10:53:00
5:12 AM,6.1,2.5,85,30.01,10.0,North,8.1,-,N/A,,Overcast,10,2013-12-20 11:12:00
5:33 AM,4.8,1.4,86,30.02,10.0,Calm,Calm,-,N/A,,Overcast,0,2013-12-20 11:33:00
5:52 AM,4.1,0.5,85,30.02,10.0,North,3.5,-,N/A,,Overcast,360,2013-12-20 11:52:00
6:13 AM,3.4,-0.0,86,30.01,10.0,North,3.5,-,N/A,,Overcast,10,2013-12-20 12:13:00
6:33 AM,3.0,-0.4,86,30.01,10.0,North,4.6,-,N/A,Snow,Light Snow,360,2013-12-20 12:33:00
6:53 AM,3.0,-0.4,86,30.01,10.0,North,3.5,-,N/A,Snow,Light Snow,360,2013-12-20 12:53:00
7:13 AM,2.3,-0.9,86,30.01,10.0,North,3.5,-,N/A,,Overcast,360,2013-12-20 13:13:00
7:32 AM,2.1,-1.3,86,30.01,5.0,Calm,Calm,-,N/A,Snow,Light Snow,0,2013-12-20 13:32:00
7:53 AM,2.1,-1.3,86,30.01,10.0,North,3.5,-,N/A,,Clear,360,2013-12-20 13:53:00
8:13 AM,2.3,-0.9,86,30.01,10.0,North,4.6,-,N/A,Snow,Light Snow,10,2013-12-20 14:13:00
8:32 AM,2.5,-1.1,85,30.01,10.0,North,5.8,-,N/A,Snow,Light Snow,10,2013-12-20 14:32:00
8:53 AM,2.8,-0.8,85,30.01,10.0,North,4.6,-,N/A,Snow,Light Snow,10,2013-12-20 14:53:00
9:13 AM,3.0,-0.9,84,30.00,10.0,NNE,6.9,-,N/A,,Clear,20,2013-12-20 15:13:00
9:33 AM,2.8,-1.1,84,30.00,10.0,NNE,5.8,-,N/A,,Clear,30,2013-12-20 15:33:00
9:52 AM,2.8,-1.1,84,30.00,10.0,NNE,4.6,-,N/A,,Clear,20,2013-12-20 15:52:00
10:13 AM,3.0,-0.9,84,29.99,10.0,NNE,5.8,-,N/A,,Clear,20,2013-12-20 16:13:00
10:33 AM,3.7,-0.8,82,29.98,10.0,Calm,Calm,-,N/A,,Scattered Clouds,0,2013-12-20 16:33:00
10:53 AM,4.1,-0.6,81,29.98,10.0,North,3.5,-,N/A,,Scattered Clouds,350,2013-12-20 16:53:00
11:12 AM,5.0,-0.0,80,29.98,10.0,Calm,Calm,-,N/A,,Scattered Clouds,0,2013-12-20 17:12:00
11:33 AM,6.3,1.0,79,29.97,10.0,NNW,4.6,-,N/A,,Mostly Cloudy,340,2013-12-20 17:33:00
11:53 AM,6.3,1.4,80,29.95,10.0,Calm,Calm,-,N/A,,Overcast,0,2013-12-20 17:53:00
12:12 PM,6.8,2.1,81,29.95,10.0,Calm,Calm,-,N/A,,Overcast,0,2013-12-20 18:12:00
12:33 PM,7.2,2.5,81,29.95,10.0,Calm,Calm,-,N/A,,Overcast,0,2013-12-20 18:33:00
12:53 PM,7.3,3.0,82,29.94,10.0,Calm,Calm,-,N/A,Snow,Light Snow,0,2013-12-20 18:53:00
1:12 PM,7.9,3.6,83,29.94,7.0,Calm,Calm,-,N/A,Snow,Light Snow,0,2013-12-20 19:12:00
1:33 PM,8.6,4.1,82,29.93,7.0,Calm,Calm,-,N/A,Snow,Light Snow,0,2013-12-20 19:33:00
1:53 PM,9.1,4.5,81,29.92,7.0,Calm,Calm,-,N/A,Snow,Light Snow,0,2013-12-20 19:53:00
2:12 PM,9.5,5.0,82,29.92,10.0,Calm,Calm,-,N/A,Snow,Light Snow,0,2013-12-20 20:12:00
2:33 PM,10.0,5.7,83,29.91,10.0,Calm,Calm,-,N/A,,Overcast,0,2013-12-20 20:33:00
2:53 PM,10.4,5.9,82,29.91,10.0,Calm,Calm,-,N/A,,Overcast,0,2013-12-20 20:53:00
3:13 PM,10.4,6.1,83,29.90,10.0,Calm,Calm,-,N/A,,Overcast,0,2013-12-20 21:13:00
3:33 PM,10.4,5.9,82,29.89,10.0,Calm,Calm,-,N/A,,Overcast,0,2013-12-20 21:33:00
3:52 PM,10.8,6.3,82,29.88,10.0,Calm,Calm,-,N/A,,Overcast,0,2013-12-20 21:52:00
4:12 PM,10.9,6.6,83,29.88,10.0,Calm,Calm,-,N/A,,Overcast,0,2013-12-20 22:12:00
4:33 PM,11.1,6.8,83,29.89,10.0,Calm,Calm,-,N/A,,Overcast,0,2013-12-20 22:33:00
4:53 PM,11.1,6.8,83,29.89,10.0,Calm,Calm,-,N/A,,Overcast,0,2013-12-20 22:53:00
5:12 PM,11.3,6.8,82,29.89,10.0,Calm,Calm,-,N/A,,Overcast,0,2013-12-20 23:12:00
5:33 PM,10.9,6.8,83,29.89,10.0,Calm,Calm,-,N/A,,Overcast,0,2013-12-20 23:33:00
5:52 PM,10.8,6.8,84,29.88,10.0,Calm,Calm,-,N/A,,Overcast,0,2013-12-20 23:52:00
6:13 PM,10.9,6.8,83,29.88,10.0,Calm,Calm,-,N/A,,Overcast,0,2013-12-21 00:13:00
6:33 PM,10.9,6.8,83,29.89,10.0,Calm,Calm,-,N/A,,Overcast,0,2013-12-21 00:33:00
6:53 PM,10.8,7.2,85,29.88,10.0,Calm,Calm,-,N/A,,Overcast,0,2013-12-21 00:53:00
7:12 PM,10.8,6.8,84,29.89,10.0,Calm,Calm,-,N/A,,Overcast,0,2013-12-21 01:12:00
7:33 PM,10.9,6.4,82,29.88,10.0,Calm,Calm,-,N/A,,Overcast,0,2013-12-21 01:33:00
7:53 PM,10.9,6.8,83,29.88,10.0,Calm,Calm,-,N/A,,Overcast,0,2013-12-21 01:53:00
8:13 PM,10.9,6.6,83,29.87,10.0,Calm,Calm,-,N/A,,Overcast,0,2013-12-21 02:13:00
8:32 PM,11.1,6.6,82,29.87,10.0,Calm,Calm,-,N/A,,Overcast,0,2013-12-21 02:32:00
8:53 PM,11.3,6.8,82,29.86,10.0,Calm,Calm,-,N/A,,Overcast,0,2013-12-21 02:53:00
9:12 PM,11.3,6.8,82,29.85,10.0,Calm,Calm,-,N/A,,Overcast,0,2013-12-21 03:12:00
9:32 PM,11.3,6.8,82,29.84,10.0,Calm,Calm,-,N/A,,Overcast,0,2013-12-21 03:32:00
9:53 PM,11.3,6.8,82,29.84,10.0,Calm,Calm,-,N/A,,Overcast,0,2013-12-21 03:53:00
10:12 PM,11.5,7.3,83,29.85,10.0,Calm,Calm,-,N/A,,Overcast,0,2013-12-21 04:12:00
10:33 PM,11.7,7.5,83,29.84,10.0,Calm,Calm,-,N/A,,Overcast,0,2013-12-21 04:33:00
10:52 PM,11.7,7.5,83,29.85,10.0,Calm,Calm,-,N/A,,Overcast,0,2013-12-21 04:52:00
11:13 PM,11.7,7.7,84,29.85,10.0,Calm,Calm,-,N/A,,Overcast,0,2013-12-21 05:13:00
11:32 PM,11.7,7.7,84,29.85,10.0,Calm,Calm,-,N/A,,Overcast,0,2013-12-21 05:32:00
11:53 PM,11.7,8.1,85,29.85,10.0,Calm,Calm,-,N/A,,Overcast,0,2013-12-21 05:53:00